User: anonymous   Login
Location: Prague
(50.0830°N, 14.4670°E)
Time: 18:16:39
(UTC+01:00)
Language:

BEESAT - Orbit

View from above orbital plane
View from above orbital plane
View from above satellite
View from above satellite

Ground track
Ground track

The orbit data is extracted from the following two-line orbital elements,

1 35933U 09051C   21337.09637019  .00000241  00000-0  64946-4 0  9999
2 35933  98.5814 184.0659 0004940 311.1863  48.8907 14.56672236647660
Epoch (UTC): 03 December 2021 02:18:46
Eccentricity: 0.0004940
inclination: 98.5814°
perigee height: 700 km
apogee height: 707 km
right ascension of ascending node: 184.0659°
argument of perigee: 311.1863°
revolutions per day: 14.56672236
mean anomaly at epoch: 48.8907°
orbit number at epoch: 64766

The dashed part of the orbit path shows where the satellite is in the earth's shadow,  

DLR